Location: ??????
(38.0677°N, 22.9870°E)
Time: 10:33:33
(UTC+00:00)

DELTA 2 R/B (1) - Pass Details

Date: 23 May 2024
Orbit: 789 x 801 km, 39.6° (Epoch: 23 June)

Event Time Altitude Azimuth Distance (km) Brightness Sun altitude
Exits shadow 02:06:58 - 284° (WNW) 3,334 6.4 -11.5°
Rises 02:07:06 0° 284° (WNW) 3,285 6.4 -11.5°
Reaches altitude 10° 02:09:36 10° 282° (WNW) 2,353 5.6 -11.1°
Maximum altitude 02:15:05 65° 201° (SSW) 862 3.6 -10.2°
Drops below altitude 10° 02:20:33 10° 121° (ESE) 2,341 6.3 -9.4°
Sets 02:23:02 0° 118° (ESE) 3,267 7.1 -9.0°
